STARLINK-32605, 61921

Orbit data source: Space-Track

STARLINK-32605, 61921 is a payload satellite owned by SpaceX/Seattle (US) in LEO that was launched on Mon, 11 Nov 2024 UTC via an FALCON 9 launch vehicle from the Air Force Eastern Test Range (AFETR). Payload-class satellites include a variety of spacecraft equipped with specific instruments for various scientific and technological missions. These include communications satellites like Starlink; space stations such as the ISS; scientific satellites like the Hubble; Earth observation satellites from companies like Planet Labs, Umbra, and HawkEye 360; GPS; miniature CubeSats for education and research; and military/defense satellites.

Loading next visibility...
Identifier
61921, 2024-207K
Orbit
LEO
Country
Flag of USUS
Related business
Manufacturer
SpaceX/Seattle
Mission
Operational Commercial Communications
Bus & Motor
STARLINK V2M, Unknown motor
Mass
730 kg wet, ~700 kg dry
Launch date (UTC)
2024-11-11 (1 year ago)
Launch vehicle
FALCON 9
Launch site
Air Force Eastern Test Range (AFETR)
Object type
Payload
Rocket body
Debris
Shape & HBR
Box + 2 Pan, 17.7 m
Radar Cross Section
33.884 m², Large (>1 m²)

Expand to show TLE details & history
Last TLE update: 18 hours ago

TLE from 18 hours ago
0 STARLINK-32605
1 61921U 24207K   26072.87074812  .00026915  00000-0  98310-3 0  9995
2 61921  42.9985 257.9453 0001341 275.8850  84.1848 15.27611263 75365
Epoch: 2026-03-13T20:53Z
TLE epoch observation values (Epoch: 2026-03-13T20:53:52.637Z)
Latitude
-0.00007°
Longitude
132.97583°
Altitude
482.638 km
Speed
7.626 km/s
True Right ascension
17h 11m 46s
True Declination
0° 00' 00"
Sunlit
Object was in daylight at epoch
Visualization orbit readout
Latitude
Unknown
Longitude
Unknown
Altitude
Unknown
Speed
Unknown
Apparent Right ascension
Unknown
Apparent Declination
Unknown
Sunlit
N/A
Visualization observer readout
Local Sidereal Time
19:18:35
Azimuth
Unknown
Elevation
Unknown
Doppler factor
Unknown
Orbital elements
Apogee altitude
485.821 km
Perigee altitude
483.981 km
Semi-major axis
6,863.038 km
Eccentricity
0.00013
Inclination
42.9985°
RAAN
257.9453°
Arg. of periapsis
275.885°
True anomaly
84.20009°
Mean anomaly
84.1848°
Eccentric anomaly
84.19244°
Mean motion
3.81741 °/min
Orbital period
94.3 mins
BSTAR
0.0009831
Loading maneuver chart data...
Computing Atmospheric mass density...
Loading historical data...
Loading historical data...
Loading historical data...
Loading historical data...
Loading historical data...
Loading historical data...
Loading historical data...

Documentation

Showing up to 5 results
|